View from above orbital plane
|
View from above satellite
|
Ground track
|
The orbit data is extracted from the following two-line orbital elements,
1 00107U 61013A 21056.71307133 .00000809 00000-0 86262-4 0 9993
2 00107 28.7899 190.9570 0546052 255.8507 98.0818 14.09142178 1987
Epoch (UTC): | 25 February 2021 17:06:49 |
Eccentricity: | 0.0546052 |
inclination: | 28.7899° |
perigee height: | 467 km |
apogee height: | 1257 km |
right ascension of ascending node: | 190.9570° |
argument of perigee: | 255.8507° |
revolutions per day: | 14.09142178 |
mean anomaly at epoch: | 98.0818° |
orbit number at epoch: | 198 |
The dashed part of the orbit path shows where the satellite is in the earth's shadow,
|
|